Location: Newark
(45.8667°N, 9.7333°E)
Time: 18:03:37
(UTC+00:00)

Transit 4A - Pass Details

Date: 24 January 2020
Orbit: 872 x 973 km, 66.8° (Epoch: 22 February)

Event Time Altitude Azimuth Distance (km) Brightness Sun altitude
Rises 16:41:38 0° 309° (NW) 3,468 11.3 -5.2°
Reaches altitude 10° 16:45:42 10° 282° (WNW) 2,528 11.2 -5.8°
Maximum altitude 16:47:59 12° 258° (WSW) 2,359 11.6 -6.2°
Drops below altitude 10° 16:50:16 10° 235° (SW) 2,533 11.8 -6.5°
Sets 16:54:23 0° 207° (SSW) 3,483 11.7 -7.2°
